User: anonymous   Login
Location: Daybis Observatory
(33.4273°N, 88.8061°W)
Time: 11:27:52
(UTC-05:00)
Language:

Coronas F rocket - Orbit

View from above orbital plane
View from above orbital plane
View from above satellite
View from above satellite

Ground track
Ground track

The orbit data is extracted from the following two-line orbital elements,

1 26874U 01032B   17080.81378543 +.00151778 +91374-5 +18493-3 0  9994
2 26874 082.4474 333.1786 0003369 168.3387 191.7974 16.08025742879788
Epoch (UTC): 21 March 2017 19:31:51
Eccentricity: 0.0003369
inclination: 82.4474°
perigee height: 250 km
apogee height: 254 km
right ascension of ascending node: 333.1786°
argument of perigee: 168.3387°
revolutions per day: 16.08025742
mean anomaly at epoch: 191.7974°
orbit number at epoch: 87978

The dashed part of the orbit path shows where the satellite is in the earth's shadow,  

DLR